Afton Municipal Airport, WY

12:59 AM MST on December 09, 2019 (GMT -0700)
Afton Municipal

Weather History for KAFO - October, 2019

Change the Weather History Date:

Wednesday, October 9, 2019

  Actual Average Record
Temperature  
Mean Temperature 34 °F -  
Max Temperature 46 °F 60 °F 69 °F (2015)
Min Temperature 21 °F 25 °F 17 °F (2017)
Degree Days  
Heating Degree Days 32    
Moisture  
Dew Point 21 °F    
Average Humidity 64    
Maximum Humidity 93    
Minimum Humidity 41    
Precipitation  
Precipitation 0.00 in - - ()
Sea Level Pressure  
Sea Level Pressure 29.87 in    
Wind  
Wind Speed 9 mph ()    
Max Wind Speed 18 mph    
Max Gust Speed 24 mph    
Visibility 9.0 miles    
Events Snow    
Averages and records for this station are not official NWS values.
T = Trace of Precipitation, MM = Missing Value Source: Averaged Metar Reports

Daily Weather History Graph

Daily Weather History Graph

Search for Another Location

Airport or City:

Astronomy

Oct. 09, 2019 Rise Set
Actual Time 7:29 AM MDT 6:51 PM MDT
Civil Twilight 7:01 AM MDT 7:19 PM MDT
Nautical Twilight 6:28 AM MDT 7:52 PM MDT
Astronomical Twilight 5:56 AM MDT 8:25 PM MDT
Moon 5:32 PM MDT 3:11 AM MDT
Length of Visible Light 12h 18m
Length of Day
11h 21m
Waxing Gibbous, 85% of the Moon is Illuminated
Oct 9
Waxing Gibbous
Oct 13
Full
Oct 21
Last Quarter
Oct 27
New
Nov 4
First Quarter

Hourly Weather History & Observations

Time (MDT) Temp. Windchill Dew Point Humidity Pressure Visibility Wind Dir Wind Speed Gust Speed Precip Events Conditions
12:15 AM 42.8 °F 37.0 °F 26.6 °F 53% 29.76 in 10.0 mi SW 10.4 mph - N/A   Clear
12:35 AM 41.0 °F 34.7 °F 26.6 °F 57% 29.74 in 10.0 mi SSW 10.4 mph - N/A   Clear
12:55 AM 39.2 °F 31.2 °F 26.6 °F 61% 29.73 in 10.0 mi SW 13.8 mph - N/A   Clear
1:15 AM 42.8 °F 37.0 °F 24.8 °F 49% 29.72 in 10.0 mi South 10.4 mph - N/A   Clear
1:35 AM 42.8 °F 38.0 °F 24.8 °F 49% 29.71 in 10.0 mi South 8.1 mph 17.3 mph N/A   Clear
1:55 AM 46.4 °F 41.5 °F 24.8 °F 43% 29.71 in 10.0 mi SSW 10.4 mph - N/A   Clear
2:15 AM 41.0 °F 34.7 °F 24.8 °F 53% 29.70 in 10.0 mi SSW 10.4 mph - N/A   Clear
2:35 AM 41.0 °F 33.5 °F 24.8 °F 53% 29.69 in 10.0 mi South 13.8 mph - N/A   Clear
2:55 AM 41.0 °F 34.7 °F 24.8 °F 53% 29.68 in 10.0 mi SSW 10.4 mph - N/A   Clear
3:15 AM 41.0 °F 35.8 °F 26.6 °F 57% 29.67 in 10.0 mi SSW 8.1 mph - N/A   Clear
3:35 AM 39.2 °F 33.0 °F 24.8 °F 56% 29.65 in 10.0 mi SW 9.2 mph - N/A   Clear
3:55 AM 37.4 °F 29.8 °F 24.8 °F 60% 29.65 in 10.0 mi SSW 11.5 mph - N/A   Clear
4:15 AM 39.2 °F 33.0 °F 24.8 °F 56% 29.66 in 10.0 mi SE 9.2 mph - N/A   Clear
4:35 AM 41.0 °F 34.7 °F 24.8 °F 53% 29.67 in 10.0 mi West 10.4 mph 17.3 mph N/A   Clear
4:55 AM 37.4 °F 32.1 °F 24.8 °F 60% 29.69 in 10.0 mi NE 6.9 mph - N/A   Clear
5:15 AM 39.2 °F 33.0 °F 26.6 °F 61% 29.70 in 10.0 mi NNE 9.2 mph - N/A   Clear
5:35 AM 41.0 °F 36.4 °F 26.6 °F 57% 29.70 in 10.0 mi NNE 6.9 mph - N/A   Scattered Clouds
5:55 AM 39.2 °F 32.5 °F 30.2 °F 70% 29.72 in 10.0 mi NNW 10.4 mph - N/A   Mostly Cloudy
6:15 AM 39.2 °F 32.5 °F 30.2 °F 70% 29.73 in 10.0 mi North 10.4 mph - N/A   Overcast
6:35 AM 39.2 °F 30.8 °F 28.4 °F 65% 29.75 in 10.0 mi North 15.0 mph 23.0 mph N/A   Overcast
6:55 AM 37.4 °F 28.5 °F 28.4 °F 70% 29.76 in 10.0 mi NNW 15.0 mph 20.7 mph N/A   Overcast
7:15 AM 37.4 °F 29.8 °F 28.4 °F 70% 29.76 in 10.0 mi NNW 11.5 mph - N/A   Overcast
7:55 AM 37.4 °F 32.8 °F 28.4 °F 70% 29.79 in 10.0 mi WNW 5.8 mph - N/A   Overcast
8:15 AM 37.4 °F 31.4 °F 26.6 °F 65% 29.79 in 10.0 mi NNW 8.1 mph - N/A   Overcast
8:35 AM 33.8 °F 26.4 °F 28.4 °F 81% 29.82 in 7.0 mi NNW 9.2 mph - N/A Snow Light Snow
8:55 AM 32.0 °F 21.6 °F 28.4 °F 87% 29.83 in 1.5 mi North 15.0 mph 18.4 mph N/A   Overcast
9:35 AM 30.2 °F 20.8 °F 28.4 °F 93% 29.86 in 0.8 mi NW 11.5 mph 17.3 mph N/A Snow Snow
9:55 AM 30.2 °F 20.8 °F 28.4 °F 93% 29.86 in 0.5 mi NNE 11.5 mph - N/A Snow Snow
10:15 AM 30.2 °F 22.6 °F 28.4 °F 93% 29.86 in 1.0 mi NE 8.1 mph - N/A Snow Light Snow
10:35 AM 30.2 °F 26.7 °F 28.4 °F 93% 29.87 in 0.5 mi East 3.5 mph - N/A Snow Snow
10:55 AM 30.2 °F - 28.4 °F 93% 29.86 in 0.5 mi Calm Calm - N/A Snow Snow
11:15 AM 30.2 °F - 28.4 °F 93% 29.87 in 0.5 mi Calm Calm - N/A Snow Snow
11:35 AM 30.2 °F 24.3 °F 28.4 °F 93% 29.86 in 7.0 mi ESE 5.8 mph - N/A   Overcast
11:55 AM 32.0 °F 26.4 °F 24.8 °F 75% 29.86 in 10.0 mi SSE 5.8 mph - N/A   Mostly Cloudy
12:15 PM 32.0 °F 28.7 °F 21.2 °F 64% 29.85 in 10.0 mi South 3.5 mph - N/A   Overcast
12:35 PM 32.0 °F 24.8 °F 23.0 °F 69% 29.84 in 10.0 mi SSE 8.1 mph - N/A   Mostly Cloudy
12:55 PM 32.0 °F 25.6 °F 21.2 °F 64% 29.84 in 10.0 mi SSE 6.9 mph - N/A   Mostly Cloudy
1:15 PM 33.8 °F 28.6 °F 21.2 °F 60% 29.85 in 10.0 mi West 5.8 mph - N/A   Mostly Cloudy
1:35 PM 35.6 °F 27.1 °F 19.4 °F 52% 29.86 in 10.0 mi WSW 12.7 mph 17.3 mph N/A   Mostly Cloudy
1:55 PM 33.8 °F 23.9 °F 19.4 °F 56% 29.86 in 10.0 mi West 15.0 mph 18.4 mph N/A   Mostly Cloudy
2:15 PM 32.0 °F 23.0 °F 17.6 °F 55% 29.87 in 10.0 mi WSW 11.5 mph 19.6 mph N/A   Mostly Cloudy
2:35 PM 35.6 °F 26.6 °F 15.8 °F 44% 29.88 in 10.0 mi West 13.8 mph 19.6 mph N/A   Mostly Cloudy
2:55 PM 33.8 °F 26.4 °F 14.0 °F 44% 29.89 in 10.0 mi West 9.2 mph 16.1 mph N/A   Overcast
3:15 PM 33.8 °F 23.9 °F 14.0 °F 44% 29.90 in 10.0 mi West 15.0 mph - N/A   Overcast
3:35 PM 32.0 °F 20.5 °F 15.8 °F 51% 29.91 in 10.0 mi West 18.4 mph - N/A   Overcast
3:55 PM 33.8 °F 22.8 °F 14.0 °F 44% 29.92 in 10.0 mi West 18.4 mph 21.9 mph N/A   Overcast
4:15 PM 33.8 °F 25.8 °F 12.2 °F 41% 29.92 in 10.0 mi WSW 10.4 mph - N/A   Scattered Clouds
4:35 PM 33.8 °F 26.4 °F 12.2 °F 41% 29.92 in 10.0 mi West 9.2 mph 19.6 mph N/A   Scattered Clouds
4:55 PM 32.0 °F 20.8 °F 15.8 °F 51% 29.93 in 10.0 mi WNW 17.3 mph 24.2 mph N/A   Scattered Clouds
5:15 PM 32.0 °F 22.1 °F 21.2 °F 64% 29.95 in 10.0 mi WNW 13.8 mph - N/A   Scattered Clouds
5:35 PM 32.0 °F 22.1 °F 21.2 °F 64% 29.97 in 10.0 mi NW 13.8 mph 18.4 mph N/A   Mostly Cloudy
5:55 PM 30.2 °F 24.3 °F 23.0 °F 75% 29.98 in 10.0 mi North 5.8 mph - N/A Snow Light Snow
6:15 PM 30.2 °F 21.9 °F 19.4 °F 64% 29.99 in 10.0 mi NNW 9.2 mph - N/A   Overcast
6:35 PM 28.4 °F 20.4 °F 17.6 °F 64% 29.99 in 10.0 mi WNW 8.1 mph - N/A   Scattered Clouds
6:55 PM 28.4 °F 21.2 °F 17.6 °F 64% 30.00 in 10.0 mi WNW 6.9 mph - N/A   Scattered Clouds
7:15 PM 26.6 °F 22.6 °F 17.6 °F 69% 30.02 in 10.0 mi NNW 3.5 mph - N/A   Mostly Cloudy
7:35 PM 28.4 °F 18.5 °F 14.0 °F 55% 30.03 in 10.0 mi North 11.5 mph 16.1 mph N/A   Overcast
7:55 PM 28.4 °F 18.5 °F 12.2 °F 51% 30.03 in 10.0 mi NNW 11.5 mph - N/A   Overcast
8:15 PM 26.6 °F 16.8 °F 14.0 °F 59% 30.04 in 10.0 mi NNW 10.4 mph - N/A   Overcast
8:35 PM 26.6 °F 16.8 °F 14.0 °F 59% 30.05 in 10.0 mi NNW 10.4 mph - N/A   Overcast
8:55 PM 24.8 °F 16.1 °F 14.0 °F 64% 30.05 in 10.0 mi NNW 8.1 mph - N/A   Scattered Clouds
9:15 PM 23.0 °F 17.0 °F 14.0 °F 68% 30.05 in 10.0 mi NNW 4.6 mph - N/A   Scattered Clouds
9:35 PM 23.0 °F 18.4 °F 14.0 °F 68% 30.06 in 10.0 mi NNE 3.5 mph - N/A   Mostly Cloudy
9:55 PM 23.0 °F 15.8 °F 14.0 °F 68% 30.07 in 10.0 mi NNE 5.8 mph - N/A   Scattered Clouds
10:15 PM 23.0 °F 13.9 °F 14.0 °F 68% 30.08 in 10.0 mi NNE 8.1 mph - N/A   Mostly Cloudy
10:35 PM 23.0 °F 15.8 °F 14.0 °F 68% 30.08 in 10.0 mi NE 5.8 mph - N/A   Overcast
10:55 PM 23.0 °F 17.0 °F 14.0 °F 68% 30.09 in 10.0 mi NNE 4.6 mph - N/A   Overcast
11:15 PM 23.0 °F 15.8 °F 14.0 °F 68% 30.09 in 10.0 mi North 5.8 mph - N/A   Overcast
11:35 PM 21.2 °F 13.6 °F 14.0 °F 74% 30.10 in 10.0 mi North 5.8 mph - N/A   Overcast
11:55 PM 21.2 °F 12.6 °F 12.2 °F 68% 30.10 in 10.0 mi NNW 6.9 mph - N/A   Scattered Clouds